Location: Little Elm
(33.1626°N, 96.9375°W)
Time: 20:15:21
(UTC+00:00)

Envisat - Pass Details

Date: 17 May 2022
Orbit: 764 x 765 km, 98.2° (Epoch: 25 June)

Event Time Altitude Azimuth Distance (km) Brightness Sun altitude
Rises 10:27:36 0° 21° (NNE) 3,234 7.2 -11.7°
Reaches altitude 10° 10:30:04 10° 30° (NNE) 2,304 6.5 -11.3°
Maximum altitude 10:34:48 39° 98° (E) 1,133 4.4 -10.4°
Drops below altitude 10° 10:39:30 10° 167° (SSE) 2,290 5.3 -9.6°
Sets 10:41:56 0° 175° (S) 3,211 6.0 -9.2°
